Location: doobydoo
(53.3403°N, 2.6908°W)
Time: 14:05:01
(UTC+00:00)

ISS - Pass Details

Date: 23 December 2021
Orbit: 413 x 422 km, 51.6° (Epoch: 19 January)

Event Time Altitude Azimuth Distance (km) Brightness Sun altitude
Exits shadow 06:38:40 - 227° (SW) 1,594 -1.1 -14.5°
Reaches altitude 10° 06:38:54 10° 226° (SW) 1,505 -1.2 -14.5°
Maximum altitude 06:42:02 36° 158° (SSE) 685 -2.3 -14.0°
Drops below altitude 10° 06:45:07 11° 90° (E) 1,485 0.2 -13.6°
Sets 06:47:24 0° 81° (E) 2,383 1.2 -13.3°
